Zurück zum Katalog

SL-24 R/B

AktivPO
NORAD 40047·ROCKET BODY·🇷🇺 Russia

Gestartet Jun 19, 2014 von Dombarovsky

Loading…

Nächste Überflüge (nächste 24 Stunden)

TLE

AktuellSource: Space-Track

Epoche: Sep 14, 2026, 07:16 UTC

1 40047U 14033AP  26257.30346845  .00000003  00000-0  15844-4 0  9990
2 40047  97.8578  99.1032 0568451  50.3734 314.6181 13.61974673608168

Verfolge SL-24 R/B in Echtzeit mit AllMySat

Download on the App Store